Location: Taupo
(38.6830°S, 176.0830°E)
Time: 10:42:06
(UTC+12:00)

Cosmos 1763 Rocket - Visible Passes

Search period start: 24 April 2019 00:00
Search period end: 04 May 2019 00:00
Orbit: 733 x 781 km, 74.0° (Epoch: 22 April)

Date Brightness Start Highest point End Pass type
(mag) Time Alt. Az. Time Alt. Az. Time Alt. Az.
24 Apr 5.5 04:59:13 15° NNW 04:59:13 15° NNW 05:00:07 10° NNW visible
24 Apr 6.3 19:27:32 10° W 19:29:39 12° SW 19:31:47 10° SSW visible
25 Apr 5.8 18:44:51 10° WNW 18:48:47 22° WSW 18:52:46 10° S visible
26 Apr 4.9 18:03:19 10° NW 18:08:04 39° WSW 18:12:54 10° S visible
28 Apr 6.1 18:26:02 10° W 18:29:17 17° WSW 18:32:36 10° SSW visible
01 May 6.2 18:07:37 10° W 18:09:52 13° SW 18:12:07 10° SSW visible
